Погода в Щербакуле

Погода в Щербакуле : погода сейчас, прогноз погоды и архив. Всё, что Вы хотите узнать о погоде в Щербакуле!

Хотите узнать прогноз погоды в Щербакуле? Тогда Вам сюда: Погода в Щербакуле

Поиск расширенной информации на нашем сайте:

Другие новости

Новости СМИ2

Главная страница сайта

Новости сайта

03.07.2017

Напоминаем, что на нашем специализированном сайте Метеоцентр.Азия вы можете получить высокодетализированные автоматические прогнозы погоды по пунктам России, СНГ и мира в авиационном формате (включающие направление и скорость ветра, видимость, явления погоды, количество и форму облачности, нижнюю и верхнюю границу облачности).

Рекомендуем: http://www.italyvisa.ru Документы необходимые для оформления визы в Италию

Погода в Щербакуле - сегодня

Время (UTC), дата Ветер
(°,м/с) 
Видим.   Явления Облачность Т
(°С)
Тd
(°С)
f(%) Тe
(°С)
Pmin
(гПа)
dP
(гПа)
Po
(мм)
O2
(г/м3)
Тmin Tmax R s Состояние
почвы
03 18.07.17 050 (СВ) 20000 м    10/3 600 м кучево-дожд., средняя 
[Cb cap|Ac cuf]
+15.9 +12.7 81 +21  1010.3  1.2  748  282  +12.1         
06 18.07.17 040 (СВ) 20000 м  в посл. час ливневой дождь  10/6 600 м кучево-дожд., средняя 
[Cb cap|Ac cuf]
+16.9 +14 83 +25  1011.5  1.2  749  281           
09 18.07.17 010 (С) 20000 м    10/8 630 м верхняя 
[Cu Sc|Cs]
+22.2 +13.3 57 +28  1010.7  -0.6  748  276           
12 18.07.17 360 (С) 2{20}  20000 м  в посл. час гроза{ливн. осадки}  10/3 600 м кучево-дожд., средняя 
[Cb cap|Ac cuf]
+20.8 +15.9 74 +31  1011  0.3  748  277           
15 18.07.17 350 (С) 20000 м  {гроза}  10/3 600 м кучево-дожд., верхняя 
[Cb cap|Cs]
+20.4 +14.8 70 +29  1011.6  0.5  749  278    +23.9     
18 18.07.17 340 (С) 20000 м  зарница{гроза}  3/3 600 м кучево-дожд. 
[Cb cap]
+16.9 +12.7 76 +23  1012.1  0.4  749  282           
21 18.07.17 330 (СЗ) 20000 м    1/0 средняя 
[Ac lent]
+15.4 +12.3 82 +20  1011.9  -0.3  749  283           
00 19.07.17 310 (СЗ) 20000 м    10/0 средняя, верхняя 
[Ac cast|Ci]
+14.1 +12.2 88 +19  1012.5  0.5  749  285           
03 19.07.17 320 (СЗ) 20000 м    10/0 средняя, верхняя 
[Ac trans|Ci fib]
+18.7 +14.5 77 +27  1012.6  0.3  749  280  +13.8         
06 19.07.17 330 (СЗ) 20000 м    8/3 1000 м средняя, верхняя 
[Cu hum|Ac trans|Ci fib]
+24.9 +13.7 50 +31  1012.1  -0.2  749  274           
09 19.07.17 040 (СВ) 4{11}  20000 м  гроза без осадков  10/8 600 м кучево-дожд., верхняя 
[Cb cap|Cc]
+24.4 +12.2 46 +29  1011.3  -0.8  749  275           
12 19.07.17 040 (СВ) 5{11}  20000 м  гроза без осадков{ливн. осадки} [макс. диам. градин 8 мм]  10/8 570 м кучево-дожд., верхняя 
[Cb cap|Ci fib]
+18.7 +12.2 66 +23  1012.3  0.7  749  280           
15 19.07.17 270 (З) 20000 м  гроза без осадков{ливн. осадки}  10/8 570 м кучево-дожд., средняя, верхняя 
[Cb cap|Ac cast|Ci fib]
+17.5 +14.1 80 +25  1012  -0.4  749  281    +25.8     
18 19.07.17 300 (СЗ) 20000 м  зарница{гроза, ливн. осадки}  10/6 600 м кучево-дожд., верхняя 
[Cb cap|Ci fib]
+15.5 +12.9 84 +21  1012.2  -0.1  749  283           
21 19.07.17 тихо ()   20000 м    6/0 верхняя 
[Ci fib]
+12.5 +10.8 89 +15  1012  -0.4  749  286           
00 20.07.17 330 (СЗ) 1000 м  дымка  10/0 верхняя 
[Ci fib]
+13.1 +11.8 92 +18  1012.5  0.6  749  286           
03 20.07.17 330 (СЗ) 20000 м  {туман}  10/0 средняя, верхняя 
[Ac As|Ci fib]
+19.5 +12.6 64 +26  1012.6  0.4  750  279  +12         
06 20.07.17 260 (З) 20000 м  {туман}  6/4 1000 м верхняя 
[Cu hum|Ci fib]
+23.6 +13 51 +29  1012.2  -0.3  749  275           
09 20.07.17 260 (З) 4{10}  20000 м    9/9 600 м кучево-дожд. 
[Cb cap]
+21.1 +11.5 54 +24  1011.3  -0.9  749  278           
12 20.07.17 020 (С) 20000 м    10/6 600 м кучево-дожд., верхняя 
[Cb cap|Cs]
+22.1 +13.3 57 +28  1011.8  0.5  749  277           
15 20.07.17 310 (СЗ) 20000 м    10/0 средняя, верхняя 
[Ac lent|Cc]
+19.5 +14.1 71 +28  1011.4  -0.5  749  279    +25       
18 20.07.17 230 (ЮЗ) 20000 м    6/0 верхняя 
[Ci fib]
+15.7 +13.7 88 +23  1012.1  0.5  749  283           
21 20.07.17 270 (З) 4000 м  дымка  6/0 верхняя 
[Ci fib]
+14 +12.5 91 +20  1012.1  0.1  749  285           
00 21.07.17 280 (З) 4000 м  дымка  10/0 средняя, верхняя 
[Ac lent|Cs]
+13.8 +12.4 91 +20  1012.3  0.2  749  285           
03 21.07.17 тихо ()   20000 м    10/0 средняя, верхняя 
[Ac lent|Cs]
+18.2 +14.6 80 +26  1012.8  0.7  750  280  +12.5         
Время (UTC), дата Ветер
(°,м/с) 
Видим.   Явления Облачность Т
(°С)
Тd
(°С)
f(%) Тe
(°С)
Pmin
(гПа)
dP
(гПа)
Po
(мм)
O2
(г/м3)
Тmin Tmax R s Состояние
почвы

Для получения пояснительной информации подведите курсор к названию столбца.

ПОГОДА в Щербакуле - архив

Всё, что Вы хотите узнать о погоде в Щербакуле - удобно и подробно!

Выберите нужную дату (начиная с 1 января 2015* года) и нажмите кнопку "Найти".
Будут отображены архивные сводки погоды по пункту Щербакуль, начиная с указанной даты.


Отображать данные в формате CSV (для использования в таблицах Excel)


Внимание! Наш архив погоды предназначен исключительно для личного некоммерческого использования в познавательных целях. Если Вам необходимы официальные справки о состоянии погоды (для производственных, юридических, коммерческих и т.п. целей), обращайтесь в органы Росгидромета.

*Примечание: данная дата относится к архиву по метеостанциям СССР (Россия, СНГ, Балтия).
Архив по метеостанциям Зарубежной Европы и Азии (кроме Китая) хранится 10 дней, по другим регионам земного шара (Китай, Африка, Америка, Австралия, Океания) - 1 день.

Щербакуль - район местоположения метеостанции


Название, широта, долгота, высота метеостанции:
Щербакуль 54.6°ш. 72.4°д. 115 м над ур. моря [Российская Федерация]

Дополнительная информация

В oтличие oт бoльшинства пoгoдных сайтoв мы публикуем пoдрoбную метеoинфoрмацию в детальнoм прoфессиoнальнoм фoрмате.

Характеристики температуры и влажнoсти вoздуха измеряются на высoте 2 м в тени вдали oт зданий и деревьев.
Скoрoсть ветра измеряется на высoте 10 м (на урoвне рoста челoвека скoрoсть ветра ниже в 1.5-2 раза). Если метеoстанция нахoдится в гoрoде или в лесу, тo скoрoсть ветра занижена на 2-4 м/с пo сравнению с oткрытым местoм. Скoрoсть ветра над акватoриями крупных рек и oзёр, а также на вершинах хoлмoв на 2-5 м/с выше, чем в oбычных услoвиях.
Атмoсфернoе давление в разных тoчках местнoсти мoжет значительнo oтличаться oт давления на метеoстанции, в зависимoсти oт услoвий рельефа (при пoдъёме на 10 м давление пoнижается примернo на 1 мм рт.ст.).